リニア-ニート彗星

355P/LINEAR-NEAT (2017)

English version
Home page
Updated on October 9, 2017

---------------------------------------------------------------------

・ プロフィール

符号 355P/2017 M2
検出日 2017年6月21日
検出光度 19.6等
検出者 Erwin Schwab (Egelsbach, Germany), Pablo Ruiz (European Space Agency's Optical Ground Station, Tenerife)

・ 写真集

・ 軌道要素

Epoch 2017 Oct. 14.0 TT = JDT 2458040.5
T 2017 Oct. 12.68623 TT                                 MPCW
q   1.7159573            (2000.0)            P               Q
n   0.15204336     Peri.  336.34336     +0.87875814     -0.45318831
a   3.4766242      Node    51.45940     +0.46272386     +0.73216449
e   0.5064300      Incl.   11.03260     +0.11692204     +0.50848355
P   6.48
From 424 observations 2004 July 16-2017 June 22, mean residual 0".6.

・ 星図

・ 光度変化

        m1 = 13.5 + 5 logΔ + 15.0 log r

        ※ 灰色の曲線は、m1 = 6.5 + 5 logΔ + 35 log r(t + 25) の光度曲線です。

---------------------------------------------------------------------

軌道要素はM.P.E.C. 2017-M40に掲載されたものです。
星図はステラナビゲータ Ver.10 (アストロアーツ) で作成したものです。
光度グラフはComet for Windowsで作成したものです。

---------------------------------------------------------------------

Copyright(C) Seiichi Yoshida (comet@aerith.net). All rights reserved.